Kezdőlap
METAR-TAF:

METAR-TAF

Repülőterek :

Beatrice Municipal Airport

Beatrice, Nebraska, Amerikai Egyesült Államok

földrajzi szélesség: 40-18N, földrajzi hosszúság: 096-45W, magasság: 403 m

Jelenlegi meteorológiai megfigyelések

A jelentés 11 perccel ezelõtt készült, 09:55 UTC
Keleti szél 9 kt
Hőmérséklet 7°C
Páratartalom 76%
Légköri nyomás 1013 hPa
Látótávolság: 16.1 km
Derült ég

METAR: KBIE 230955Z AUTO 08009KT 10SM CLR 07/03 A2990 RMK AO2 T00730025

Idő: 05:06 (10:06 UTC)


TAF: hiányzik

Meteorológiai megfigyelések és előrejelzések több, mint 4000 repülőtéren (METAR és TAF jelentéseket).

A térképen piros és sárga pontok jelzik az elérhető meteorológiai állomásokat.

Mozgassa az egeret a pont fölött, hogy megjelenjen az állomás neve.

Azután kattintson az időjárási megfigyelések és előrejelzések megtekintéséhez.

A térkép megváltoztatása: kattintson a fekete keresztel jelölt zöld gombra ráközelítéshez, a vonallal jelölt zöld gombra távolításhoz, vagy a zöld nyilakra a szomszédos térképek eléréséhez.


METAR-TAF: